Regional Weather Roundup
Issued by NWS

Home | Current Version | Previous Version | Text Only | Print | Product List | Glossary Off
Versions: 1 2 3 4 5 6 7 8 9 10 11 12 13 14 15 16 17 18 19 20 21 22 23 24 25 26 27 28 29 30 31 32 33 34 35 36 37 38 39 40 41 42 43 44 45 46 47 48 49 50

549
ASUS45 KTFX 251710
RWRMT
MONTANA REGIONAL WEATHER ROUNDUP
NATIONAL WEATHER SERVICE GREAT FALLS MT
1100 AM MDT TUE JUL 25 2017

NOTE: "FAIR" INDICATES FEW OR NO CLOUDS BELOW 12000 FEET WITH NO
SIGNIFICANT WEATHER AND/OR OBSTRUCTIONS TO VISIBILITY.

MTZ001>007-043-251800-
WEST OF THE DIVIDE

CITY           SKY/WX    TMP DP  RH WIND       PRES   REMARKS
KALISPELL      SUNNY     73  42  32 VRB3      30.06S
MISSOULA       SUNNY     75  37  25 VRB3      30.06F
BUTTE          PTSUNNY   69  37  30 CALM      30.17F
MULLAN PASS    SUNNY     66  30  26 NW3       30.19S
ANACONDA         N/A     64  39  39 E3        30.16F
DEER LODGE       N/A     70  36  28 CALM      30.16F
EUREKA           N/A     70  39  32 MISG      30.08S
HAMILTON         N/A     66  43  42 N3        30.09R
LIBBY            N/A     72  37  28 SW3       30.05F
PLAINS           N/A     73  40  30 CALM      30.05F
$$

MTZ008-052>055-251800-
SOUTHWEST MONTANA

CITY           SKY/WX    TMP DP  RH WIND       PRES   REMARKS
BOZEMAN        CLOUDY    66  49  54 N10       30.15S
DILLON         CLOUDY    65  42  43 N9        30.16S
W YELLOWSTONE  CLOUDY    55  48  76 CALM      30.27S
ENNIS          PTSUNNY   64  39  39 SW7       30.23F
THREE FORKS      N/A     69  43  39 NE2       30.13S
TWIN BRIDGES     N/A     68  38  33 N3        30.12S
$$

MTZ009-010-012-014-046-048-049-054-251800-
EAST SLOPES AND CENTRAL MONTANA

CITY           SKY/WX    TMP DP  RH WIND       PRES   REMARKS
CUT BANK       SUNNY     66  38  35 CALM      30.15F
GREAT FALLS    SUNNY     67  38  34 E7        30.15F
HELENA         PTSUNNY   68  40  35 CALM      30.15F
CHOTEAU          N/A     68  37  32 S12       30.18S
$$

MTZ011-013-016-021-045-047-050-051-251800-
NORTH CENTRAL MONTANA

CITY           SKY/WX    TMP DP  RH WIND       PRES   REMARKS
HAVRE          SUNNY     70  40  33 NW6       30.13F
LEWISTOWN      SUNNY     70  37  29 E7        30.16F
N BAR RANCH      N/A     70  36  28 VRB6G14   30.20F
CHINOOK          N/A     70  39  32 W7        30.12F
$$

MTZ017>020-022>027-061-062-251800-
NORTHEAST MONTANA

CITY           SKY/WX    TMP DP  RH WIND       PRES   REMARKS
GLASGOW        SUNNY     70  47  43 MISG      30.08F
JORDAN           N/A     73  42  32 VRB3      30.10
SIDNEY         SUNNY     76  46  34 NW14      30.03F
WOLF POINT     SUNNY     80  43  26 NW10G17   30.05F
MALTA          SUNNY     73  41  31 W9        30.10F
PLENTYWOOD       N/A     72  46  40 NW16G24   30.02S
POPLAR           N/A     75  45  33 NW12      30.04F
SCOBEY           N/A     72  43  35 W15       30.05R
$$

MTZ028>42-056>058-251800-
SOUTHCENTRAL AND SOUTHEAST MONTANA

CITY           SKY/WX    TMP DP  RH WIND       PRES   REMARKS
BAKER          PTSUNNY   81  37  20 NE16G22   30.06R
BILLINGS       CLOUDY    70  37  29 NE12      30.15F
LIVINGSTON     CLOUDY    65  38  36 E15       30.18
MILES CITY     MOSUNNY   81  37  20 VRB6G17   30.06S
BIG TIMBER     MOSUNNY   66  36  32 E7        30.22F
EKALAKA          N/A     76  44  31 NE8       30.06R
FORSYTH          N/A     79  37  22 N9        30.08S
LAUREL           N/A     70  37  29 NE7       30.14F
ROUNDUP          N/A     71  35  26 N9        30.06F
$$

REGIONAL REPORTS...DAKOTAS

CITY           SKY/WX    TMP DP  RH WIND       PRES   REMARKS
WILLISTON      SUNNY     78  47  33 NW14G21   30.02S
MINOT          SUNNY     76  50  40 W8        29.96S
DICKINSON      MOSUNNY   81  44  27 N14       30.00R
BEACH            N/A     77  39  25 NE13G20   30.07S
CROSBY           N/A     73  48  40 NW16G26   29.99F
TIOGA            N/A     73  46  38 W18       30.02R
WATFORD CITY     N/A     75  46  35 NW13      30.01F
BISMARCK       CLOUDY    78  55  44 N16       29.91F
GRAND FORKS    CLOUDY    78  70  76 SW9       29.88R
BUFFALO SD       N/A     78  49  35 NE22G32   29.99R
RAPID CITY     CLOUDY    83  55  38 NE12      30.00R
$$

REGIONAL REPORTS...WYOMING/IDAHO/WASHINGTON

CITY           SKY/WX    TMP DP  RH WIND       PRES   REMARKS
GILLETTE       CLOUDY    80  49  33 N13       30.08R
SHERIDAN       CLOUDY    72  46  39 NW15      30.13R
BUFFALO WY     CLOUDY    73  45  36 N18G24    30.17R
CODY           CLOUDY    62  43  49 NE14      30.18S
YELLOWSTONE LA   N/A     57  52  83 SE3       30.35R
IDAHO FALLS    CLOUDY    79  52  38 S16       30.12R
BOISE          CLOUDY    76  49  38 N3        30.01R
SPOKANE        MOSUNNY   75  39  27 NE5       30.04S
$$

REGIONAL REPORTS...ALBERTA

CITY           SKY/WX    TMP DP  RH WIND       PRES   REMARKS
EDMONTON       MOSUNNY   66  55  68 SW5       30.03S
CALGARY        MOSUNNY   66  43  42 S3        30.13S
LETHBRIDGE     MOSUNNY   68  41  37 SE6       30.13F
MEDICINE HAT   SUNNY     70  45  40 W8        30.11S
WATERTON GATE    N/A     66  41  39 S2          N/A
$$

REGIONAL REPORTS...SASKATCHEWAN

CITY           SKY/WX    TMP DP  RH WIND       PRES   REMARKS
SWIFT CURRENT  SUNNY     68  48  49 NW20G31   30.05F
REGINA         MOSUNNY   70  54  56 W21G31    29.95R
SASKATOON      PTSUNNY   68  57  68 W18G26    29.95R
CYPRESS HILLS    N/A     59  45  58 NW8G20      N/A
VAL MARIE        N/A     72  43  35 NW10G21     N/A
ROCKGLEN         N/A     68  45  42 NW16G23     N/A
ASSINIBOIA       N/A     68  52  56 SW3         N/A
$$




USA.gov is the U.S. government's official web portal to all federal, state and local government web resources and services.